Weather History for Imperial, CA

Change the Weather History Date:

Sunday, June 30, 2013

  Actual Average Record
Temperature  
Mean Temperature 96 °F -  
Max Temperature 113 °F 105 °F 118 °F (1950)
Min Temperature 82 °F 73 °F 63 °F (1952)
Cooling Degree Days 32    
Growing Degree Days 46 (Base 50)    
Moisture  
Dew Point 67 °F    
Average Humidity 43    
Maximum Humidity 63    
Minimum Humidity 21    
Precipitation  
Precipitation 0.00 in - - ()
Sea Level Pressure  
Sea Level Pressure 29.65 in    
Wind  
Wind Speed 4 mph (SSE)    
Max Wind Speed 17 mph    
Max Gust Speed -    
Visibility 10 miles    
Events      
Averages and records for this station are not official NWS values.
T = Trace of Precipitation, MM = Missing Value Source: NWS Daily Summary

Daily Weather History Graph

Daily Weather History Graph

Search for Another Location

Airport:

Trip Planner

Search our weather history database for the weather conditions in past years. The results will help you decide how hot, cold, wet, or windy it might be!

Date:

Astronomy

Jun. 30, 2013 Rise Set
Actual Time 5:37 AM PDT 7:54 PM PDT
Civil Twilight 5:08 AM PDT 8:23 PM PDT
Nautical Twilight 4:33 AM PDT 8:58 PM PDT
Astronomical Twilight 3:55 AM PDT 9:35 PM PDT
Moon 12:22 AM PDT (6/30) 1:27 PM PDT (6/30)
Length of Visible Light 15h 14m
Length of Day
14h 17m
Last Quarter, 44% of the Moon is Illuminated
Jun 30
Last Quarter
Jul 8
New
Jul 15
First Quarter
Jul 22
Full
Jul 29
Last Quarter

Hourly Weather History & Observations

Time (PDT) Temp. Heat Index Dew Point Humidity Pressure Visibility Wind Dir Wind Speed Gust Speed Precip Events Conditions
12:53 AM 84.9 °F 87.1 °F 66.0 °F 53% 29.64 in 10.0 mi East 3.5 mph - N/A   Clear
1:53 AM 84.9 °F 87.6 °F 66.9 °F 55% 29.64 in 10.0 mi Calm Calm - N/A   Clear
2:53 AM 84.9 °F 87.1 °F 66.0 °F 53% 29.64 in 10.0 mi ESE 3.5 mph - N/A   Clear
3:53 AM 84.0 °F 86.3 °F 66.0 °F 55% 29.65 in 10.0 mi Calm Calm - N/A   Clear
4:53 AM 82.0 °F 83.8 °F 64.9 °F 56% 29.66 in 10.0 mi Calm Calm - N/A   Clear
5:53 AM 82.9 °F 85.4 °F 66.9 °F 58% 29.68 in 10.0 mi East 3.5 mph - N/A   Clear
6:53 AM 84.0 °F 87.0 °F 68.0 °F 58% 29.70 in 10.0 mi SE 3.5 mph - N/A   Clear
7:53 AM 86.0 °F 92.2 °F 72.0 °F 63% 29.71 in 10.0 mi Variable 3.5 mph - N/A   Clear
8:53 AM 87.1 °F 93.6 °F 72.0 °F 61% 29.72 in 10.0 mi West 3.5 mph - N/A   Clear
9:53 AM 91.0 °F 96.6 °F 70.0 °F 50% 29.73 in 10.0 mi Calm Calm - N/A   Clear
10:53 AM 95.0 °F 100.7 °F 69.1 °F 43% 29.72 in 10.0 mi Calm Calm - N/A   Clear
11:53 AM 99.0 °F 105.5 °F 69.1 °F 38% 29.70 in 10.0 mi Variable 3.5 mph - N/A   Clear
12:53 PM 102.0 °F 107.3 °F 66.9 °F 32% 29.69 in 10.0 mi SSW 4.6 mph - N/A   Clear
1:53 PM 105.1 °F 111.8 °F 68.0 °F 30% 29.65 in 10.0 mi SW 4.6 mph - N/A   Clear
2:53 PM 108.0 °F 112.9 °F 64.9 °F 25% 29.63 in 10.0 mi SW 5.8 mph - N/A   Clear
3:53 PM 109.9 °F 113.7 °F 63.0 °F 22% 29.60 in 10.0 mi WSW 3.5 mph - N/A   Partly Cloudy
4:53 PM 111.9 °F 116.2 °F 63.0 °F 21% 29.56 in 10.0 mi Variable 6.9 mph - N/A   Scattered Clouds
5:53 PM 108.0 °F 114.8 °F 66.9 °F 27% 29.55 in 10.0 mi ESE 17.3 mph - N/A   Mostly Cloudy
6:53 PM 104.0 °F 110.5 °F 68.0 °F 31% 29.57 in 10.0 mi ESE 15.0 mph - N/A   Partly Cloudy
7:53 PM 99.0 °F 103.5 °F 66.9 °F 35% 29.59 in 10.0 mi SE 11.5 mph - N/A   Clear
8:53 PM 98.1 °F 101.8 °F 66.0 °F 35% 29.60 in 10.0 mi SE 11.5 mph - N/A   Clear
9:53 PM 96.1 °F 101.0 °F 68.0 °F 40% 29.62 in 10.0 mi SE 9.2 mph - N/A   Clear
10:53 PM 93.0 °F 95.9 °F 66.0 °F 41% 29.63 in 10.0 mi SE 11.5 mph - N/A   Clear
11:53 PM 89.1 °F 95.0 °F 71.1 °F 55% 29.65 in 10.0 mi SE 13.8 mph - N/A   Clear